Year,Month,Day,Hour,Minute,Value (Times are PST for temperature in C)
2010,07,22,10,11,17.50
2010,07,22,10,12,17.50
2010,07,22,10,13,17.60
2010,07,22,10,14,17.60
2010,07,22,10,15,17.70
2010,07,22,10,16,17.80
2010,07,22,10,17,17.80
2010,07,22,10,18,17.80
2010,07,22,10,19,17.90
2010,07,22,10,20,18.00
2010,07,22,10,21,18.10
2010,07,22,10,22,18.10
2010,07,22,10,23,18.20
2010,07,22,10,24,18.20
2010,07,22,10,25,18.20
2010,07,22,10,26,18.10
2010,07,22,10,27,18.10
2010,07,22,10,28,17.90
2010,07,22,10,29,17.80
2010,07,22,10,30,17.70
2010,07,22,10,31,17.70
2010,07,22,10,32,17.70
2010,07,22,10,33,17.70
2010,07,22,10,34,17.70
2010,07,22,10,35,17.60
2010,07,22,10,36,17.60
2010,07,22,10,37,17.50
2010,07,22,10,38,17.40
2010,07,22,10,39,17.40
2010,07,22,10,40,17.40
2010,07,22,10,41,17.30
2010,07,22,10,42,17.30
2010,07,22,10,43,17.20
2010,07,22,10,44,17.20
2010,07,22,10,45,17.20
2010,07,22,10,46,17.20
2010,07,22,10,47,17.30
2010,07,22,10,48,17.30
2010,07,22,10,49,17.40
2010,07,22,10,50,17.40
2010,07,22,10,51,17.30
2010,07,22,10,52,17.30
2010,07,22,10,53,17.20
2010,07,22,10,54,17.20
2010,07,22,10,55,17.30
2010,07,22,10,56,17.30
2010,07,22,10,57,17.30
2010,07,22,10,58,17.40
2010,07,22,10,59,17.50
2010,07,22,11,00,17.60
2010,07,22,11,01,17.60
2010,07,22,11,02,17.70
2010,07,22,11,03,17.80
2010,07,22,11,04,17.90
2010,07,22,11,05,17.90
2010,07,22,11,06,17.90
2010,07,22,11,07,17.90
2010,07,22,11,08,17.80
2010,07,22,11,09,17.70
2010,07,22,11,10,17.60
2010,07,22,11,11,17.50
2010,07,22,11,12,17.40
2010,07,22,11,13,17.40
2010,07,22,11,14,17.40
2010,07,22,11,15,17.30
2010,07,22,11,16,17.40
2010,07,22,11,17,17.40
2010,07,22,11,18,17.50
2010,07,22,11,19,17.60
2010,07,22,11,20,17.60
2010,07,22,11,21,17.60
2010,07,22,11,22,17.40
2010,07,22,11,23,17.30
2010,07,22,11,24,17.20
2010,07,22,11,25,17.20
2010,07,22,11,26,17.20
2010,07,22,11,27,17.20
2010,07,22,11,28,17.20
2010,07,22,11,29,17.20
2010,07,22,11,30,17.20
2010,07,22,11,31,17.30
2010,07,22,11,32,17.30
2010,07,22,11,33,17.30
2010,07,22,11,34,17.30
2010,07,22,11,35,17.30
2010,07,22,11,36,17.30
2010,07,22,11,37,17.40
2010,07,22,11,38,17.50
2010,07,22,11,39,17.50
2010,07,22,11,40,17.60
2010,07,22,11,41,17.60
2010,07,22,11,42,17.70
2010,07,22,11,43,17.80
2010,07,22,11,44,17.80
2010,07,22,11,45,17.90
2010,07,22,11,46,17.90
2010,07,22,11,47,18.00
2010,07,22,11,48,18.10
2010,07,22,11,49,18.10
2010,07,22,11,50,18.20
2010,07,22,11,51,18.30
2010,07,22,11,52,18.30
2010,07,22,11,53,18.30
2010,07,22,11,54,18.20
2010,07,22,11,55,18.20
2010,07,22,11,56,18.20
2010,07,22,11,57,18.10
2010,07,22,11,58,18.10
2010,07,22,11,59,18.00
2010,07,22,12,00,17.90
2010,07,22,12,01,17.90
2010,07,22,12,02,17.80
2010,07,22,12,03,17.90
2010,07,22,12,04,17.90
2010,07,22,12,05,17.80
2010,07,22,12,06,17.70
2010,07,22,12,07,17.70
2010,07,22,12,08,17.60
2010,07,22,12,09,17.50
2010,07,22,12,10,17.30
2010,07,22,12,11,17.20
2010,07,22,12,12,17.00
2010,07,22,12,13,16.90
2010,07,22,12,14,16.80
2010,07,22,12,15,16.70
2010,07,22,12,16,16.80
2010,07,22,12,17,16.90
2010,07,22,12,18,17.00
2010,07,22,12,19,17.20
2010,07,22,12,20,17.30
2010,07,22,12,21,17.50
2010,07,22,12,22,17.60
2010,07,22,12,23,17.70
2010,07,22,12,24,17.80
2010,07,22,12,25,17.80
2010,07,22,12,26,17.70
2010,07,22,12,27,17.70
2010,07,22,12,28,17.60
2010,07,22,12,29,17.60
2010,07,22,12,30,17.50
2010,07,22,12,31,17.40
2010,07,22,12,32,17.30
2010,07,22,12,33,17.20
2010,07,22,12,34,17.30
2010,07,22,12,35,17.30
2010,07,22,12,36,17.40
2010,07,22,12,37,17.50
2010,07,22,12,38,17.60
2010,07,22,12,39,17.70
2010,07,22,12,40,17.70
2010,07,22,12,41,17.70
2010,07,22,12,42,17.80
2010,07,22,12,43,17.80
2010,07,22,12,44,17.70
2010,07,22,12,45,17.70
2010,07,22,12,46,17.70
2010,07,22,12,47,17.80
2010,07,22,12,48,17.80
2010,07,22,12,49,17.80
2010,07,22,12,50,17.90
2010,07,22,12,51,17.80
2010,07,22,12,52,17.80
2010,07,22,12,53,17.80
2010,07,22,12,54,17.80
2010,07,22,12,55,17.70
2010,07,22,12,56,17.60
2010,07,22,12,57,17.60
2010,07,22,12,58,17.60
2010,07,22,12,59,17.70
2010,07,22,13,00,17.70
2010,07,22,13,01,17.80
2010,07,22,13,02,18.00
2010,07,22,13,03,18.00
2010,07,22,13,04,18.10
2010,07,22,13,05,18.10
2010,07,22,13,06,18.10
2010,07,22,13,07,18.10
2010,07,22,13,08,18.20
2010,07,22,13,09,18.20
2010,07,22,13,10,18.20
2010,07,22,13,11,18.30
2010,07,22,13,12,18.30
2010,07,22,13,13,18.30
2010,07,22,13,14,18.30
2010,07,22,13,15,18.30
2010,07,22,13,16,18.30
2010,07,22,13,17,18.30
2010,07,22,13,18,18.40
2010,07,22,13,19,18.50
2010,07,22,13,20,18.50
2010,07,22,13,21,18.60
2010,07,22,13,22,18.60
2010,07,22,13,23,18.60
2010,07,22,13,24,18.60
2010,07,22,13,25,18.60
2010,07,22,13,26,18.70
2010,07,22,13,27,18.70
2010,07,22,13,28,18.70
2010,07,22,13,29,18.70
2010,07,22,13,30,18.80
2010,07,22,13,31,18.80
2010,07,22,13,32,18.90
2010,07,22,13,33,18.90
2010,07,22,13,34,19.00
2010,07,22,13,35,19.10
2010,07,22,13,36,19.20
2010,07,22,13,37,19.20
2010,07,22,13,38,19.20
2010,07,22,13,39,19.30
2010,07,22,13,40,19.40
2010,07,22,13,41,19.40
2010,07,22,13,42,19.40
2010,07,22,13,43,19.40
2010,07,22,13,44,19.50
2010,07,22,13,45,19.60
2010,07,22,13,46,19.60
2010,07,22,13,47,19.60
2010,07,22,13,48,19.60
2010,07,22,13,49,19.60
2010,07,22,13,50,19.60
2010,07,22,13,51,19.70
2010,07,22,13,52,19.60
2010,07,22,13,53,19.60
2010,07,22,13,54,19.70
2010,07,22,13,55,19.70
2010,07,22,13,56,19.70
2010,07,22,13,57,19.70
2010,07,22,13,58,19.80
2010,07,22,13,59,19.90
2010,07,22,14,00,19.90
2010,07,22,14,01,19.90
2010,07,22,14,02,19.70
2010,07,22,14,03,19.50
2010,07,22,14,04,19.30
2010,07,22,14,05,19.20
2010,07,22,14,06,19.10
2010,07,22,14,07,19.10
2010,07,22,14,08,19.10
2010,07,22,14,09,19.10
2010,07,22,14,10,19.10
2010,07,22,14,11,19.00
2010,07,22,14,12,19.00
2010,07,22,14,13,18.90
2010,07,22,14,14,18.90
2010,07,22,14,15,18.80
2010,07,22,14,16,18.80
2010,07,22,14,17,18.80
2010,07,22,14,18,18.80
2010,07,22,14,19,18.80
2010,07,22,14,20,18.80
2010,07,22,14,21,18.70
2010,07,22,14,22,18.60
2010,07,22,14,23,18.60
2010,07,22,14,24,18.50
2010,07,22,14,25,18.60
2010,07,22,14,26,18.70
2010,07,22,14,27,18.70
2010,07,22,14,28,18.70
2010,07,22,14,29,18.80
2010,07,22,14,30,18.90
2010,07,22,14,31,18.90
2010,07,22,14,32,19.00
2010,07,22,14,33,19.10
2010,07,22,14,34,19.10
2010,07,22,14,35,19.10
2010,07,22,14,36,19.10
2010,07,22,14,37,19.00
2010,07,22,14,38,19.00
2010,07,22,14,39,19.10
2010,07,22,14,40,19.10
2010,07,22,14,41,19.00
2010,07,22,14,42,19.00
2010,07,22,14,43,18.90
2010,07,22,14,44,19.00
2010,07,22,14,45,19.10
2010,07,22,14,46,19.20
2010,07,22,14,47,19.20
2010,07,22,14,48,19.30
2010,07,22,14,49,19.30
2010,07,22,14,50,19.20
2010,07,22,14,51,19.20
2010,07,22,14,52,19.10
2010,07,22,14,53,18.90
2010,07,22,14,54,18.80
2010,07,22,14,55,18.80
2010,07,22,14,56,18.80
2010,07,22,14,57,18.80
2010,07,22,14,58,18.80
2010,07,22,14,59,18.80
2010,07,22,15,00,18.80
2010,07,22,15,01,18.80
2010,07,22,15,02,18.80
2010,07,22,15,03,18.70
2010,07,22,15,04,18.70
2010,07,22,15,05,18.70
2010,07,22,15,06,18.70
2010,07,22,15,07,18.70
2010,07,22,15,08,18.70
2010,07,22,15,09,18.70
2010,07,22,15,10,18.60
2010,07,22,15,11,18.60
2010,07,22,15,12,18.50
2010,07,22,15,13,18.50
2010,07,22,15,14,18.60
2010,07,22,15,15,18.60
2010,07,22,15,16,18.70
2010,07,22,15,17,18.70
2010,07,22,15,18,18.70
2010,07,22,15,19,18.70
2010,07,22,15,20,18.70
2010,07,22,15,21,18.80
2010,07,22,15,22,18.90
2010,07,22,15,23,18.90
2010,07,22,15,24,19.00
2010,07,22,15,25,19.00
2010,07,22,15,26,19.00
2010,07,22,15,27,19.00
2010,07,22,15,28,19.10
2010,07,22,15,29,19.20
2010,07,22,15,30,19.20
2010,07,22,15,31,19.10
2010,07,22,15,32,19.00
2010,07,22,15,33,18.80
2010,07,22,15,34,18.80
2010,07,22,15,35,18.70
2010,07,22,15,36,18.80
2010,07,22,15,37,18.80
2010,07,22,15,38,18.90
2010,07,22,15,39,19.00
2010,07,22,15,40,19.00
2010,07,22,15,41,19.10
2010,07,22,15,42,19.20
2010,07,22,15,43,19.20
2010,07,22,15,44,19.20
2010,07,22,15,45,19.20
2010,07,22,15,46,19.20
2010,07,22,15,47,19.10
2010,07,22,15,48,19.10
2010,07,22,15,49,19.00
2010,07,22,15,50,18.90
2010,07,22,15,51,18.90
2010,07,22,15,52,18.80
2010,07,22,15,53,18.80
2010,07,22,15,54,18.70
2010,07,22,15,55,18.60
2010,07,22,15,56,18.60
2010,07,22,15,57,18.50
2010,07,22,15,58,18.50
2010,07,22,15,59,18.40
2010,07,22,16,00,18.30
2010,07,22,16,01,18.20
2010,07,22,16,02,18.20
2010,07,22,16,03,18.20
2010,07,22,16,04,18.20
2010,07,22,16,05,18.20
2010,07,22,16,06,18.10
2010,07,22,16,07,18.10
2010,07,22,16,08,18.10
2010,07,22,16,09,18.10
2010,07,22,16,10,18.10
2010,07,22,16,11,18.10
2010,07,22,16,12,18.10
2010,07,22,16,13,18.10
2010,07,22,16,14,18.10
2010,07,22,16,15,18.10
2010,07,22,16,16,18.10
2010,07,22,16,17,18.10
2010,07,22,16,18,18.00
2010,07,22,16,19,18.00
2010,07,22,16,20,18.00
2010,07,22,16,21,18.00
2010,07,22,16,22,18.00
2010,07,22,16,23,18.10
2010,07,22,16,24,18.10
2010,07,22,16,25,18.20
2010,07,22,16,26,18.20
2010,07,22,16,27,18.20
2010,07,22,16,28,18.20
2010,07,22,16,29,18.20
2010,07,22,16,30,18.20
2010,07,22,16,31,18.20
2010,07,22,16,32,18.30
2010,07,22,16,33,18.30
2010,07,22,16,34,18.30
2010,07,22,16,35,18.30
2010,07,22,16,36,18.30
2010,07,22,16,37,18.30
2010,07,22,16,38,18.30
2010,07,22,16,39,18.20
2010,07,22,16,40,18.20
2010,07,22,16,41,18.20
2010,07,22,16,42,18.10
2010,07,22,16,43,18.10
2010,07,22,16,44,18.10
2010,07,22,16,45,18.10
2010,07,22,16,46,18.10
2010,07,22,16,47,18.20
2010,07,22,16,48,18.20
2010,07,22,16,49,18.20
2010,07,22,16,50,18.30
2010,07,22,16,51,18.20
2010,07,22,16,52,18.20
2010,07,22,16,53,18.20
2010,07,22,16,54,18.00
2010,07,22,16,55,17.90
2010,07,22,16,56,17.70
2010,07,22,16,57,17.60
2010,07,22,16,58,17.60
2010,07,22,16,59,17.50
2010,07,22,17,00,17.40
2010,07,22,17,01,17.30
2010,07,22,17,02,17.30
2010,07,22,17,03,17.10
2010,07,22,17,04,17.10
2010,07,22,17,05,17.10
2010,07,22,17,06,17.00
2010,07,22,17,07,17.00
2010,07,22,17,08,16.90
2010,07,22,17,09,16.90
2010,07,22,17,10,16.80
2010,07,22,17,11,16.80
2010,07,22,17,12,16.80
2010,07,22,17,13,16.70
2010,07,22,17,14,16.70
2010,07,22,17,15,16.60
2010,07,22,17,16,16.60
2010,07,22,17,17,16.60
2010,07,22,17,18,16.60
2010,07,22,17,19,16.60
2010,07,22,17,20,16.60
2010,07,22,17,21,16.50
2010,07,22,17,22,16.50
2010,07,22,17,23,16.50
2010,07,22,17,24,16.50
2010,07,22,17,25,16.50
2010,07,22,17,26,16.50
2010,07,22,17,27,16.50
2010,07,22,17,28,16.60
2010,07,22,17,29,16.60
2010,07,22,17,30,16.60
2010,07,22,17,31,16.60
2010,07,22,17,32,16.60
2010,07,22,17,33,16.70
2010,07,22,17,34,16.70
2010,07,22,17,35,16.70
2010,07,22,17,36,16.70
2010,07,22,17,37,16.80
2010,07,22,17,38,16.90
2010,07,22,17,39,17.00
2010,07,22,17,40,17.10
2010,07,22,17,41,17.20
2010,07,22,17,42,17.20
2010,07,22,17,43,17.30
2010,07,22,17,44,17.30
2010,07,22,17,45,17.30
2010,07,22,17,46,17.40
2010,07,22,17,47,17.40
2010,07,22,17,48,17.40
2010,07,22,17,49,17.40
2010,07,22,17,50,17.40
2010,07,22,17,51,17.40
2010,07,22,17,52,17.30
2010,07,22,17,53,17.30
2010,07,22,17,54,17.30
2010,07,22,17,55,17.40
2010,07,22,17,56,17.50
2010,07,22,17,57,17.50
2010,07,22,17,58,17.60
2010,07,22,17,59,17.60
2010,07,22,18,00,17.60
2010,07,22,18,01,17.60
2010,07,22,18,02,17.70
2010,07,22,18,03,17.60
2010,07,22,18,04,17.70
2010,07,22,18,05,17.60
2010,07,22,18,06,17.60
2010,07,22,18,07,17.60
2010,07,22,18,08,17.50
2010,07,22,18,09,17.50
2010,07,22,18,10,17.50
2010,07,22,18,11,17.50
2010,07,22,18,12,17.40
2010,07,22,18,13,17.40
2010,07,22,18,14,17.40
2010,07,22,18,15,17.30
2010,07,22,18,16,17.30
2010,07,22,18,17,17.30
2010,07,22,18,18,17.30
2010,07,22,18,19,17.20
2010,07,22,18,20,17.20
2010,07,22,18,21,17.20
2010,07,22,18,22,17.10
2010,07,22,18,23,17.10
2010,07,22,18,24,17.00
2010,07,22,18,25,17.00
2010,07,22,18,26,16.90
2010,07,22,18,27,16.90
2010,07,22,18,28,16.90
2010,07,22,18,29,16.90
2010,07,22,18,30,16.90
2010,07,22,18,31,16.90
2010,07,22,18,32,16.90
2010,07,22,18,33,16.90
2010,07,22,18,34,16.90
2010,07,22,18,35,16.90
2010,07,22,18,36,16.90
2010,07,22,18,37,16.90
2010,07,22,18,38,16.90
2010,07,22,18,39,16.90
2010,07,22,18,40,16.80
2010,07,22,18,41,16.80
2010,07,22,18,42,16.80
2010,07,22,18,43,16.80
2010,07,22,18,44,16.70
2010,07,22,18,45,16.70
2010,07,22,18,46,16.60
2010,07,22,18,47,16.60
2010,07,22,18,48,16.60
2010,07,22,18,49,16.60
2010,07,22,18,50,16.70
2010,07,22,18,51,16.70
2010,07,22,18,52,16.70
2010,07,22,18,53,16.70
2010,07,22,18,54,16.70
2010,07,22,18,55,16.70
2010,07,22,18,56,16.70
2010,07,22,18,57,16.70
2010,07,22,18,58,16.70
2010,07,22,18,59,16.60
2010,07,22,19,00,16.60
2010,07,22,19,01,16.60
2010,07,22,19,02,16.60
2010,07,22,19,03,16.60
2010,07,22,19,04,16.50
2010,07,22,19,05,16.50
2010,07,22,19,06,16.60
2010,07,22,19,07,16.50
2010,07,22,19,08,16.50
2010,07,22,19,09,16.50
2010,07,22,19,10,16.50
2010,07,22,19,11,16.50
2010,07,22,19,12,16.50
2010,07,22,19,13,16.50
2010,07,22,19,14,16.50
2010,07,22,19,15,16.40
2010,07,22,19,16,16.30
2010,07,22,19,17,16.30
2010,07,22,19,18,16.30
2010,07,22,19,19,16.30
2010,07,22,19,20,16.30
2010,07,22,19,21,16.20
2010,07,22,19,22,16.20
2010,07,22,19,23,16.20
2010,07,22,19,24,16.10
2010,07,22,19,25,16.10
2010,07,22,19,26,16.10
2010,07,22,19,27,16.10
2010,07,22,19,28,16.10
2010,07,22,19,29,16.10
2010,07,22,19,30,16.10
2010,07,22,19,31,16.10
2010,07,22,19,32,16.10
2010,07,22,19,33,16.10
2010,07,22,19,34,16.10
2010,07,22,19,35,16.10
2010,07,22,19,36,16.10
2010,07,22,19,37,16.10
2010,07,22,19,38,16.10
2010,07,22,19,39,16.10
2010,07,22,19,40,16.10
2010,07,22,19,41,16.10
2010,07,22,19,42,16.10
2010,07,22,19,43,16.10
2010,07,22,19,44,16.10
2010,07,22,19,45,16.10
